Regional Weather Roundup
Issued by NWS San Diego, CA

Home | Current Version | Previous Version | Text Only | Print | Product List | Glossary On
Versions: 1 2 3 4 5 6 7 8 9 10 11 12 13 14 15 16 17 18 19 20 21 22 23 24 25 26 27
000
ASUS46 KSGX 131111
RWRSGX

SAN DIEGO HOURLY WEATHER ROUNDUP
NATIONAL WEATHER SERVICE SAN DIEGO CA
300 AM PST WED DEC 13 2017

NOTE: "FAIR" INDICATES FEW OR NO CLOUDS BELOW 12,000 FEET WITH NO
SIGNIFICANT WEATHER AND/OR OBSTRUCTIONS TO VISIBILITY.

CAZ042-043-060-061-PZZ750-775-131200-

GREATER SAN DIEGO AREA

CITY           SKY/WX    TMP DP  RH WIND       PRES   REMARKS
SAN DIEGO AP   CLEAR     54  23  30 CALM      30.01F
NATIONAL CITY    N/A     51  19  28 CALM      30.02F
CHULA VISTA      N/A     51  21  30 E1        29.92S
IMPERIAL BEACH CLEAR     58   4  11 E13       30.01R
BROWN FIELD    CLEAR     54   7  15 NE5       30.01S
MIRAMAR MCAS   CLEAR     57   5  12 E10       30.00F
MONTGOMERY FLD CLEAR     52   7  16 CALM      30.01F
GILLESPIE FLD  FAIR      43  14  31 CALM      30.02S

$$

NORTH SAN DIEGO COUNTY

CITY           SKY/WX    TMP DP  RH WIND       PRES   REMARKS
CAMP PENDLETON CLEAR     37  19  48 CALM      30.01F
OCEANSIDE AP   NOT AVBL
OCEANSIDE HBR    N/A     52  20  28 NW3       30.02F
VISTA            N/A     54  14  20 CALM      29.98F
CARLSBAD       CLEAR     55  16  21 NE5       29.99F
DEL MAR          N/A     60  11  14 CALM      30.01F
LA JOLLA SCRIP   N/A     66  10  11 E3        29.98F
FALLBROOK        N/A     63   7  11 N3        30.03F
ESCONDIDO        N/A     48  24  39 CALM      30.02F
SAN MARCOS       N/A     63   7  11 CALM      30.02F
POWAY            N/A     44  16  32 CALM      30.04F

$$

EAST SAN DIEGO COUNTY

CITY           SKY/WX    TMP DP  RH WIND       PRES   REMARKS
RAMONA         CLEAR     41   7  24 N3        30.04F
SANTEE LAKES     N/A     42  10  26 NW1       30.02S
LA MESA          N/A     59   8  13 CALM      29.94F
JAMUL            N/A     49   9  19 CALM      30.02S
DESCANSO N       N/A     61   6  11 E5        29.94F
MT. LAGUNA OBS   N/A     49  -3  11 E7        30.03S
CAMPO            N/A     59  -4   7 N3        30.03S

$$

ORANGE COUNTY AND THE LOS ANGELES BASIN

CITY           SKY/WX    TMP DP  RH WIND       PRES   REMARKS
JOHN WAYNE AP  CLEAR     51  30  44 CALM      30.00F
LAGUNA BEACH     N/A     51  18  27 CALM      29.95F
LAKE FOREST FR   N/A     61   2   9 NE6       29.86F
HUNTINGTON BCH   N/A     42  39  88 CALM      30.02S
LOS ALAMITOS   FAIR      45  29  54 CALM      30.00F
FULLERTON      CLEAR     47  30  51 CALM      30.00F
LONG BEACH     PTCLDY    52  25  35 CALM      30.01S
L.A. AP        CLEAR     53  26  35 E5        30.02S
L.A. DOWNTOWN  CLEAR     52  23  32 CALM      30.01S

$$

THE INLAND EMPIRE

CITY           SKY/WX    TMP DP  RH WIND       PRES   REMARKS
CORONA         CLEAR     37  18  46 CALM      30.05S
CHINO          CLEAR     42  26  53 CALM      30.06S
ONTARIO        PTCLDY    50  17  27 VRB3      30.04S
SAN BERNARDINO FAIR      46   4  17 E3        30.05F
RIVERSIDE AP   CLEAR     51  13  21 NE7       30.05S
MORENO VALLEY    N/A     58  18  21 CALM      28.19S
MARCH ARB      CLEAR     35   3  25 CALM      30.06S
HORSETHIEF CYN   N/A     56  -2   9 W3        30.04F
PERRIS           N/A     49  18  28 CALM      30.03S
HEMET EAST       N/A     53  -2  10 CALM      30.10S
FRENCH VALLEY  FAIR      43   9  24 N5        30.06F
TEMECULA         N/A     43  26  51 CALM      30.12S

$$

SAN BERNARDINO AND RIVERSIDE COUNTY MOUNTAINS

CITY           SKY/WX    TMP DP  RH WIND       PRES   REMARKS
BIG BEAR AP    PTCLDY    21  -2  35 CALM      30.29F HAZE
ANGELUS OAKS     N/A     50  12  21 CALM      30.03F

$$

SOUTHERN DESERT INCLUDING THE COACHELLA VALLEY

CITY           SKY/WX    TMP DP  RH WIND       PRES   REMARKS
PALM SPRINGS   CLEAR     56   1  10 NW7       30.06S
THOUSAND PALMS   N/A     48   5  17 N3        30.01F
PALM DESERT      N/A     44  29  55 CALM      27.28S
THERMAL        CLEAR     45  19  35 NW3       30.01F
BLYTHE         CLEAR     46  -5  11 SW8       30.06S
IMPERIAL AP    CLEAR     48   6  18 W7        30.01F
EL CENTRO NAS  CLEAR     48   1  14 W3        30.04S
YUMA AZ        PTCLDY    55   7  14 N5        30.01S

$$

UPPER DESERT

CITY           SKY/WX    TMP DP  RH WIND       PRES   REMARKS
HESPERIA         N/A     39  -5  15 W3        30.34F
APPLE VALLEY     N/A     23   8  52 SE1       30.29F
PALMDALE       PTCLDY    32  -1  24 S8        30.19S WCI  25
LANCASTER      PTCLDY    23 -13  20 NW3       30.19F
EDWARDS AFB    CLEAR     25 -17  15 W3        30.17S
DAGGETT        CLEAR     41  -7  13 W16       30.16F
29 PALMS N     CLEAR     46 -13   8 W9        30.20S
NEEDLES        CLEAR     50   1  13 W9        30.08S

$$

REGIONAL REPORTS

CITY           SKY/WX    TMP DP  RH WIND       PRES   REMARKS
SANTA BARBARA  PTCLDY    37  23  56 CALM      30.01F SMOKE
SANDBERG       CLEAR     63 -14   4 NE16      30.21F
LAS VEGAS NV   CLEAR     45   3  17 SW5       30.15F
PHOENIX AZ     PTCLDY    52  17  25 S3        30.03S
TIJUANA        CLEAR     57   1  10 SE7       30.03S
ENSENADA NW      N/A     65  32  29 CALM      29.91F

$$

OFFSHORE ISLANDS

CITY           SKY/WX    TMP DP  RH WIND       PRES   REMARKS
CATALINA ARPT  CLEAR     67  -5   5 NE6       30.06S
SAN NICOLAS IS CLEAR     59 -28   2 W9        30.02S

$$

MARINE AND OFFSHORE BUOY REPORTS

STATION/POSITION SKY/WX   TEMP    WIND        PRES    VSBY  SWELL
                          AIR SEA DIR/SP/G                  HT/PER/DIR
                          (F)     (DEG/KT/KT) (MB)    (MI)  (FT/S/D)
TANNER BANKS               61 62              1015.8F
S CLEMENTE BASIN           63 63  320/  8/  8 1015.5F         5/260/14
SAN NICOLAS IS.               61                N/A           7/290/13
SO. S. ROSA ISLA           60 60  290/  8/ 10 1016.1F         7/280/14
W. S. BARBARA CH           59 60  330/  4/  8 1016.3R         7/280/12
M. S. BARBARA CH           59 60   CALM  /  2 1017.1
S. MONICA BASIN               61  330/  8/  8 1015.6F         3/270/14
S PEDRO CHANNEL               62                N/A           3/260/13
CMP PENDLETON NS              62                N/A           2/220/14
OCEANSIDE OFFSHR              63                N/A           2/230/12
TORREY PINES OTR              62                N/A           3/260/14
SAN DIEGO BAY                 65              1016.3F
POINT LOMA SOUTH              65                N/A           5/260/14

$$





USA.gov is the U.S. government's official web portal to all federal, state and local government web resources and services.